TimeEDT,TemperatureF,Dew PointF,Humidity,Sea Level PressureIn,VisibilityMPH,Wind Direction,Wind SpeedMPH,Gust SpeedMPH,PrecipitationIn,Events,Conditions,WindDirDegrees,DateUTC
12:53 AM,48.9,46.9,93,30.16,10.0,Calm,Calm,-,N/A,,Clear,0,2013-10-08 04:53:00
1:53 AM,48.0,46.0,93,30.17,10.0,Calm,Calm,-,N/A,,Clear,0,2013-10-08 05:53:00
2:53 AM,46.9,45.0,93,30.18,10.0,Calm,Calm,-,N/A,,Clear,0,2013-10-08 06:53:00
3:53 AM,46.0,44.1,93,30.18,6.0,Calm,Calm,-,N/A,,Clear,0,2013-10-08 07:53:00
4:12 AM,46.4,44.6,93,30.18,1.8,Calm,Calm,-,N/A,,Clear,0,2013-10-08 08:12:00
4:26 AM,44.6,44.6,100,30.18,3.0,Calm,Calm,-,N/A,,Clear,0,2013-10-08 08:26:00
4:53 AM,45.0,43.0,93,30.19,5.0,Calm,Calm,-,N/A,,Clear,0,2013-10-08 08:53:00
5:28 AM,46.4,42.8,87,30.19,2.0,Calm,Calm,-,N/A,,Clear,0,2013-10-08 09:28:00
5:40 AM,44.6,42.8,93,30.19,1.0,Calm,Calm,-,N/A,,Clear,0,2013-10-08 09:40:00
5:53 AM,45.0,43.0,93,30.19,6.0,Calm,Calm,-,N/A,,Clear,0,2013-10-08 09:53:00
6:06 AM,44.6,42.8,93,30.20,0.8,Calm,Calm,-,N/A,,Clear,0,2013-10-08 10:06:00
6:18 AM,44.6,42.8,93,30.20,2.5,Calm,Calm,-,N/A,,Clear,0,2013-10-08 10:18:00
6:40 AM,44.6,42.8,93,30.20,1.0,Calm,Calm,-,N/A,,Clear,0,2013-10-08 10:40:00
6:51 AM,44.6,42.8,93,30.21,3.0,Calm,Calm,-,N/A,,Clear,0,2013-10-08 10:51:00
6:53 AM,44.1,43.0,96,30.21,5.0,Calm,Calm,-,N/A,,Clear,0,2013-10-08 10:53:00
7:50 AM,44.6,42.8,93,30.22,1.8,Calm,Calm,-,0.01,,Clear,0,2013-10-08 11:50:00
7:53 AM,45.0,43.0,93,30.22,2.0,Calm,Calm,-,0.01,,Clear,0,2013-10-08 11:53:00
8:03 AM,44.6,42.8,93,30.22,8.0,Calm,Calm,-,N/A,,Clear,0,2013-10-08 12:03:00
8:53 AM,48.9,46.9,93,30.25,10.0,Calm,Calm,-,N/A,,Clear,0,2013-10-08 12:53:00
9:53 AM,53.1,48.0,83,30.26,10.0,Calm,Calm,-,N/A,,Clear,0,2013-10-08 13:53:00
10:53 AM,59.0,48.0,67,30.26,10.0,SE,4.6,-,N/A,,Clear,140,2013-10-08 14:53:00
11:53 AM,62.1,46.9,58,30.25,10.0,Variable,4.6,-,N/A,,Clear,0,2013-10-08 15:53:00
12:53 PM,64.9,46.9,52,30.25,10.0,ESE,4.6,-,N/A,,Clear,120,2013-10-08 16:53:00
1:53 PM,66.9,46.0,47,30.22,10.0,East,6.9,-,N/A,,Clear,100,2013-10-08 17:53:00
2:53 PM,66.9,44.1,44,30.20,10.0,Variable,3.5,-,N/A,,Clear,0,2013-10-08 18:53:00
3:53 PM,69.1,46.0,44,30.19,10.0,ESE,6.9,-,N/A,,Clear,110,2013-10-08 19:53:00
4:53 PM,69.1,45.0,42,30.19,10.0,ESE,9.2,-,N/A,,Clear,110,2013-10-08 20:53:00
5:53 PM,68.0,44.1,42,30.19,9.0,East,8.1,-,N/A,,Clear,90,2013-10-08 21:53:00
6:53 PM,64.9,44.1,47,30.19,10.0,SE,4.6,-,N/A,,Clear,130,2013-10-08 22:53:00
7:53 PM,61.0,44.1,54,30.20,10.0,Calm,Calm,-,N/A,,Clear,0,2013-10-08 23:53:00
8:53 PM,55.9,45.0,67,30.20,10.0,Calm,Calm,-,N/A,,Clear,0,2013-10-09 00:53:00
9:53 PM,53.1,45.0,74,30.21,10.0,Calm,Calm,-,N/A,,Clear,0,2013-10-09 01:53:00
10:53 PM,52.0,44.1,74,30.22,10.0,Calm,Calm,-,N/A,,Clear,0,2013-10-09 02:53:00
11:53 PM,50.0,44.1,80,30.21,10.0,Calm,Calm,-,N/A,,Clear,0,2013-10-09 03:53:00